ROMMA est une association bénévole à but non lucratif. Votre soutien est indispensable : ADHERER à ROMMA ou FAIRE un DON

Tourrette-Levens - (06, Alpes-Maritimes)

Côte-d'Azur (416 m)   Longitude: 07° 16' 12" E   Latitude: 43° 47' 24" N Station partenaire n°152
 

Détail journalier du     <<     >>

Température Precipitation Humidité Pression Vent Dir Rafale Dir. rafale Ensol.
Heure (°C) (mm) (%) (hPa) (km/h) (km/h) (min)
01:00 15.004610263ONO16S0
02:00 14.704610264E21SSE0
03:00 14.204610264NE21NNE0
04:00 13.604910264NE26SSE0
05:00 12.505410272NO11S0
06:00 11.306010273ONO11OSO0
07:00 11.0061102706NNO0
08:00 12.805910272SE16NNO0
09:00 16.404610283ESE11NNE42
10:00 18.104110282ESE13ENE60
11:00 18.504010284SE18SE60
12:00 18.8040102910ESE32SSE60
13:00 18.2036102811ESE32SSE35
14:00 18.6036102912SE37S60
15:00 18.503210299SE29SSE60
16:00 18.503610287ESE29S50
17:00 18.603910286SE23ESE60
18:00 17.104310284SSE15SSE22
19:00 14.505210283NO21SSE0
20:00 13.105710283ONO11ONO0
21:00 12.705510291O6NO0
22:00 11.5060102903O0
23:00 11.3058102906SSO0
minuit 11.0058102905SSO0

Graphique du 19-04-2019

 

Serveur OMMA